VAF230 MKJP-KMIA

Flight info

Callsign VAF230
Flight time N/A
Altitude 34000
Route ALTIB UM779 ZEUSS VIICE2
Aircraft B738/M-SDE2E3FGHIRWXY/LB1

Departure

Time 2026-05-05 20:23
Airport Norman Manley International Airport (MKJP)

Arrival

Time N/A
Airport Miami International Airport (KMIA)
Time Latitude Longitude Altitude Speed Heading
2026-05-05 19:52 17.93654 -76.77933 18 ft 0 kts 292°
2026-05-05 20:14 17.93650 -76.77924 18 ft 4 kts 294°
2026-05-05 20:15 17.93640 -76.77898 18 ft 4 kts 284°
2026-05-05 20:15 17.93640 -76.77873 18 ft 4 kts 238°
2026-05-05 20:15 17.93655 -76.77860 18 ft 1 kts 199°
2026-05-05 20:15 17.93659 -76.77858 18 ft 0 kts 199°
2026-05-05 20:16 17.93658 -76.77858 18 ft 0 kts 199°
2026-05-05 20:17 17.93635 -76.77864 18 ft 6 kts 189°
2026-05-05 20:17 17.93568 -76.77882 18 ft 14 kts 204°
2026-05-05 20:17 17.93461 -76.77929 18 ft 18 kts 201°
2026-05-05 20:17 17.93437 -76.78006 18 ft 10 kts 291°
2026-05-05 20:18 17.93463 -76.78079 18 ft 12 kts 291°
2026-05-05 20:18 17.93494 -76.78165 18 ft 14 kts 291°
2026-05-05 20:18 17.93533 -76.78265 18 ft 16 kts 292°
2026-05-05 20:18 17.93577 -76.78378 18 ft 18 kts 292°
2026-05-05 20:19 17.93625 -76.78503 18 ft 19 kts 292°
2026-05-05 20:19 17.93677 -76.78638 18 ft 21 kts 293°
2026-05-05 20:19 17.93734 -76.78782 18 ft 22 kts 292°
2026-05-05 20:19 17.93793 -76.78933 18 ft 23 kts 292°
2026-05-05 20:20 17.93854 -76.79089 18 ft 24 kts 292°
2026-05-05 20:20 17.93918 -76.79255 18 ft 25 kts 292°
2026-05-05 20:20 17.93984 -76.79428 18 ft 26 kts 291°
2026-05-05 20:20 17.94051 -76.79602 18 ft 24 kts 291°
2026-05-05 20:21 17.94093 -76.79743 18 ft 17 kts 271°
2026-05-05 20:21 17.94101 -76.79839 18 ft 10 kts 275°
2026-05-05 20:21 17.94079 -76.79898 18 ft 11 kts 218°
2026-05-05 20:21 17.94014 -76.79909 18 ft 8 kts 120°
2026-05-05 20:22 17.93995 -76.79860 18 ft 11 kts 112°
2026-05-05 20:22 17.93905 -76.79631 18 ft 64 kts 112°
2026-05-05 20:22 17.93662 -76.78997 18 ft 121 kts 112°
2026-05-05 20:22 17.93276 -76.78011 61 ft 168 kts 114°
2026-05-05 20:23 17.92832 -76.76794 602 ft 180 kts 112°
2026-05-05 20:23 17.92437 -76.75574 1495 ft 175 kts 111°
2026-05-05 20:23 17.92010 -76.74325 1987 ft 191 kts 114°
2026-05-05 20:23 17.91458 -76.72963 2301 ft 213 kts 115°
2026-05-05 20:24 17.90836 -76.71489 2807 ft 223 kts 115°
2026-05-05 20:24 17.90192 -76.70005 3533 ft 226 kts 115°
2026-05-05 20:24 17.89288 -76.68677 4211 ft 231 kts 140°
2026-05-05 20:24 17.87806 -76.67998 4878 ft 239 kts 171°
2026-05-05 20:25 17.86153 -76.68227 5561 ft 245 kts 201°
2026-05-05 20:25 17.84801 -76.69312 6193 ft 250 kts 231°
2026-05-05 20:25 17.84113 -76.70990 6817 ft 255 kts 261°
2026-05-05 20:25 17.84279 -76.72828 7439 ft 257 kts 290°
2026-05-05 20:26 17.85266 -76.74383 8028 ft 259 kts 317°
2026-05-05 20:26 17.86800 -76.75367 8622 ft 261 kts 338°
2026-05-05 20:26 17.88507 -76.75979 9222 ft 263 kts 343°
2026-05-05 20:26 17.90264 -76.76540 9807 ft 266 kts 343°
2026-05-05 20:27 17.92043 -76.77104 10399 ft 268 kts 343°
2026-05-05 20:27 17.93849 -76.77659 10997 ft 270 kts 345°
2026-05-05 20:27 17.95689 -76.78135 11540 ft 275 kts 347°
2026-05-05 20:27 17.97587 -76.78599 11940 ft 286 kts 348°
2026-05-05 20:28 17.99583 -76.79080 12205 ft 302 kts 343°
2026-05-05 20:28 18.01665 -76.79692 12446 ft 318 kts 347°
2026-05-05 20:28 18.03880 -76.80211 12676 ft 334 kts 347°
2026-05-05 20:28 18.06199 -76.80740 12883 ft 349 kts 347°
2026-05-05 20:29 18.08637 -76.81267 13078 ft 364 kts 348°
2026-05-05 20:29 18.11159 -76.81813 13290 ft 376 kts 348°
2026-05-05 20:29 18.13752 -76.82380 13694 ft 382 kts 347°
2026-05-05 20:29 18.16365 -76.82957 14203 ft 385 kts 347°
2026-05-05 20:30 18.18991 -76.83540 14727 ft 387 kts 347°
2026-05-05 20:30 18.21637 -76.84128 15222 ft 390 kts 347°
2026-05-05 20:30 18.24302 -76.84721 15694 ft 393 kts 347°
2026-05-05 20:30 18.26963 -76.85314 16150 ft 396 kts 347°
2026-05-05 20:31 18.29664 -76.85916 16657 ft 397 kts 347°
2026-05-05 20:31 18.32369 -76.86519 17160 ft 398 kts 347°
2026-05-05 20:31 18.35082 -76.87125 17620 ft 400 kts 346°
2026-05-05 20:31 18.37816 -76.87736 18040 ft 402 kts 346°
2026-05-05 20:32 18.40554 -76.88348 18455 ft 404 kts 347°
2026-05-05 20:32 18.43314 -76.88965 18860 ft 406 kts 347°
2026-05-05 20:32 18.46093 -76.89585 19254 ft 408 kts 347°
2026-05-05 20:32 18.48882 -76.90207 19637 ft 410 kts 347°
2026-05-05 20:33 18.51640 -76.90823 20006 ft 412 kts 347°
2026-05-05 20:33 18.54455 -76.91453 20368 ft 414 kts 347°
2026-05-05 20:33 18.57282 -76.92085 20730 ft 415 kts 346°
2026-05-05 20:33 18.60120 -76.92720 21074 ft 417 kts 346°
2026-05-05 20:34 18.62967 -76.93358 21411 ft 419 kts 346°
2026-05-05 20:34 18.65829 -76.93998 21741 ft 420 kts 346°
2026-05-05 20:34 18.68695 -76.94641 22057 ft 422 kts 346°
2026-05-05 20:34 18.71574 -76.95286 22368 ft 423 kts 346°
2026-05-05 20:35 18.74465 -76.95934 22671 ft 425 kts 346°
2026-05-05 20:35 18.77367 -76.96584 22961 ft 426 kts 346°
2026-05-05 20:35 18.80269 -76.97232 23364 ft 424 kts 346°
2026-05-05 20:35 18.83124 -76.97872 23603 ft 427 kts 346°
2026-05-05 20:36 18.86046 -76.98527 23809 ft 430 kts 346°
2026-05-05 20:36 18.88977 -76.99185 24074 ft 431 kts 346°
2026-05-05 20:36 18.91921 -76.99846 24329 ft 432 kts 346°
2026-05-05 20:36 18.94867 -77.00507 24575 ft 433 kts 346°
2026-05-05 20:37 18.97828 -77.01172 24814 ft 435 kts 346°
2026-05-05 20:37 18.99784 -77.01612 24967 ft 435 kts 346°
2026-05-05 20:37 19.03761 -77.02505 25277 ft 437 kts 346°
2026-05-05 20:37 19.06710 -77.03167 25502 ft 438 kts 346°
2026-05-05 20:38 19.09688 -77.03837 25707 ft 439 kts 346°
2026-05-05 20:38 19.12651 -77.04504 26415 ft 427 kts 346°
2026-05-05 20:38 19.15554 -77.05158 26651 ft 429 kts 346°
2026-05-05 20:38 19.18497 -77.05821 26711 ft 434 kts 346°
2026-05-05 20:39 19.21478 -77.06494 26769 ft 439 kts 346°
2026-05-05 20:39 19.24480 -77.07171 26866 ft 443 kts 346°
2026-05-05 20:39 19.27462 -77.07844 27060 ft 444 kts 346°
2026-05-05 20:39 19.30470 -77.08523 27381 ft 441 kts 346°
2026-05-05 20:40 19.33472 -77.09277 27551 ft 442 kts 342°
2026-05-05 20:40 19.36391 -77.10310 27713 ft 442 kts 338°
2026-05-05 20:40 19.39267 -77.11475 27887 ft 443 kts 337°
2026-05-05 20:40 19.42130 -77.12679 28062 ft 443 kts 337°
2026-05-05 20:41 19.44999 -77.13885 28232 ft 444 kts 337°
2026-05-05 20:41 19.47881 -77.15097 28394 ft 445 kts 337°
2026-05-05 20:41 19.50761 -77.16308 28556 ft 446 kts 337°
2026-05-05 20:41 19.53621 -77.17509 28715 ft 446 kts 337°
2026-05-05 20:42 19.56513 -77.18725 28877 ft 447 kts 337°
2026-05-05 20:42 19.59403 -77.19939 29113 ft 445 kts 337°
2026-05-05 20:42 19.62275 -77.21146 29365 ft 444 kts 337°
2026-05-05 20:42 19.65149 -77.22354 29588 ft 443 kts 337°
2026-05-05 20:43 19.67042 -77.23148 29740 ft 442 kts 337°
2026-05-05 20:43 19.69905 -77.24348 29974 ft 441 kts 337°
2026-05-05 20:43 19.72758 -77.25544 30223 ft 440 kts 337°
2026-05-05 20:43 19.75594 -77.26735 30504 ft 437 kts 337°
2026-05-05 20:44 19.78418 -77.27920 30834 ft 434 kts 337°
2026-05-05 20:44 19.81216 -77.29096 31143 ft 431 kts 337°
2026-05-05 20:44 19.84005 -77.30268 31359 ft 431 kts 337°
2026-05-05 20:44 19.86790 -77.31439 31587 ft 430 kts 337°
2026-05-05 20:45 19.92339 -77.33775 32065 ft 428 kts 337°
2026-05-05 20:45 19.95114 -77.34943 32268 ft 427 kts 337°
2026-05-05 20:45 19.97875 -77.36106 32487 ft 427 kts 337°
2026-05-05 20:46 20.00640 -77.37271 32700 ft 426 kts 337°
2026-05-05 20:46 20.03356 -77.38416 32908 ft 426 kts 337°
2026-05-05 20:46 20.06112 -77.39579 33123 ft 425 kts 337°
2026-05-05 20:46 20.08860 -77.40738 33337 ft 424 kts 337°
2026-05-05 20:47 20.11604 -77.41897 33546 ft 424 kts 337°
2026-05-05 20:47 20.14359 -77.43060 33758 ft 423 kts 337°
2026-05-05 20:47 20.17093 -77.44215 33966 ft 423 kts 337°
2026-05-05 20:47 20.19809 -77.45363 33983 ft 425 kts 337°
2026-05-05 20:48 20.25298 -77.47684 33993 ft 423 kts 337°
2026-05-05 20:48 20.30775 -77.50001 33994 ft 423 kts 336°
2026-05-05 20:49 20.36248 -77.52319 33994 ft 423 kts 336°
2026-05-05 20:49 20.41717 -77.54637 33995 ft 423 kts 336°
2026-05-05 20:50 20.47192 -77.56960 33996 ft 423 kts 336°
2026-05-05 20:50 20.52662 -77.59282 33998 ft 423 kts 336°
2026-05-05 20:51 20.58135 -77.61606 34001 ft 423 kts 336°
2026-05-05 20:51 20.63571 -77.63918 34004 ft 423 kts 336°
2026-05-05 20:52 20.69054 -77.66250 34002 ft 423 kts 336°
2026-05-05 20:52 20.74522 -77.68579 34003 ft 423 kts 336°
2026-05-05 20:53 20.79965 -77.70897 34006 ft 422 kts 336°
2026-05-05 20:53 20.85430 -77.73227 34006 ft 424 kts 336°
2026-05-05 20:54 20.90920 -77.75571 34005 ft 424 kts 336°
2026-05-05 20:54 20.96405 -77.77914 34011 ft 426 kts 336°
2026-05-05 20:55 21.01890 -77.80259 34011 ft 426 kts 336°
2026-05-05 20:55 21.07411 -77.82621 34014 ft 426 kts 336°
2026-05-05 20:56 21.12917 -77.84979 34021 ft 426 kts 336°
2026-05-05 20:56 21.18420 -77.87337 34022 ft 426 kts 336°
2026-05-05 20:57 21.23898 -77.89686 34021 ft 426 kts 336°
2026-05-05 20:57 21.29412 -77.92052 34023 ft 426 kts 336°
2026-05-05 20:58 21.34898 -77.94409 34022 ft 422 kts 336°
2026-05-05 20:58 21.40324 -77.96741 34023 ft 422 kts 336°
2026-05-05 20:59 21.45798 -77.99096 34023 ft 423 kts 336°
2026-05-05 20:59 21.51226 -78.01434 34023 ft 422 kts 336°
2026-05-05 21:00 21.56681 -78.03784 34023 ft 422 kts 336°
2026-05-05 21:00 21.62142 -78.06139 34022 ft 423 kts 336°
2026-05-05 21:01 21.67613 -78.08501 34022 ft 422 kts 336°
2026-05-05 21:01 21.73073 -78.10859 34022 ft 422 kts 336°
2026-05-05 21:02 21.78529 -78.13218 34022 ft 422 kts 336°
2026-05-05 21:02 21.83931 -78.15556 34021 ft 420 kts 336°
2026-05-05 21:03 21.89366 -78.17909 34021 ft 421 kts 336°
2026-05-05 21:03 21.93008 -78.19488 34021 ft 421 kts 336°